FENGYUN 1C DEB, 36184

Orbit data source: Space-Track

FENGYUN 1C DEB, 36184 is space debris in SSO originally from a launch on Mon, 10 May 1999 UTC launched from the Taiyaun Space Center, China (TSC). Fengyun 1C debris stems from the Chinese weather satellite Fengyun-1C, which was intentionally destroyed by a Chinese anti-satellite missile in 2007. This event dramatically increased the amount of space debris, with thousands of trackable fragments posing hazards to satellites and human spaceflight. The Fengyun 1C debris cloud has become a focal point in discussions about space sustainability and the need for international regulations to prevent the creation of new debris.

Loading next visibility...
Identifier
36184, 1999-025DTH
Orbit
SSO
Country
Flag of CNCN / PRC
Related business
Manufacturer
Unknown
Mission
Spacecraft
Bus & Motor
Unknown
Mass
Unknown
Launch date (UTC)
1999-05-10 (27 years ago)
Launch vehicle
Unknown
Launch site
Taiyaun Space Center, China (TSC)
Object type
Payload
Rocket body
Debris
Shape & HBR
Unknown shape, 0.1 m
Radar Cross Section
Medium (>0.1 m² and <1 m²)

Expand to show TLE details & history
Last TLE update: 5 days ago

TLE from 5 days ago
0 FENGYUN 1C DEB
1 36184U 99025DTH 26252.73319167  .00001825  00000-0  97421-3 0  9993
2 36184  98.5561 234.8559 0126732 288.2954  70.4465 14.10446093663321
Epoch: 2026-09-09T17:35Z
TLE epoch observation values (Epoch: 2026-09-09T17:35:47.760Z)
Latitude
0.00006°
Longitude
-17.87413°
Altitude
831.093 km
Speed
7.453 km/s
True Right ascension
15h 39m 25s
True Declination
0° 00' 00"
Sunlit
Object was in daylight at epoch
Visualization orbit readout
Latitude
Unknown
Longitude
Unknown
Altitude
Unknown
Speed
Unknown
Apparent Right ascension
Unknown
Apparent Declination
Unknown
Sunlit
N/A
Visualization observer readout
Local Sidereal Time
00:53:35
Azimuth
Unknown
Elevation
Unknown
Doppler factor
Unknown
Orbital elements
Apogee altitude
946.676 km
Perigee altitude
763.342 km
Semi-major axis
7,233.146 km
Eccentricity
0.01267
Inclination
98.5561°
RAAN
234.8559°
Arg. of periapsis
288.2954°
True anomaly
71.82215°
Mean anomaly
70.4465°
Eccentric anomaly
71.13361°
Mean motion
3.52819 °/min
Orbital period
102.04 mins
BSTAR
0.00097421
Loading maneuver chart data...
Computing Atmospheric mass density...
Loading historical data...
Loading historical data...
Loading historical data...
Loading historical data...
Loading historical data...
Loading historical data...
Loading historical data...

Documentation

Showing up to 5 results
|